Time,TemperatureF,DewpointF,PressureIn,WindDirection,WindDirectionDegrees,WindSpeedMPH,WindSpeedGustMPH,Humidity,HourlyPrecipIn,Conditions,Clouds,dailyrainin,SoftwareType,DateUTC
2013-04-25 00:14:00,44.2,43.0,30.03,SSE,160,0.0,1.0,97,0.00,,,0.00,weatherlink.com 1.10,2013-04-25 04:14:00,
2013-04-25 00:29:00,43.4,43.0,30.03,South,184,0.0,3.0,97,0.00,,,0.00,weatherlink.com 1.10,2013-04-25 04:29:00,
2013-04-25 00:44:00,42.5,42.0,30.03,SW,220,0.0,3.0,97,0.00,,,0.00,weatherlink.com 1.10,2013-04-25 04:44:00,
2013-04-25 00:59:00,42.3,42.0,30.03,SW,220,0.0,2.0,97,0.00,,,0.00,weatherlink.com 1.10,2013-04-25 04:59:00,
2013-04-25 01:14:00,42.2,42.0,30.03,SW,220,0.0,1.0,98,0.00,,,0.00,weatherlink.com 1.10,2013-04-25 05:14:00,
2013-04-25 01:29:00,41.9,41.0,30.04,ENE,73,0.0,3.0,98,0.00,,,0.00,weatherlink.com 1.10,2013-04-25 05:29:00,
2013-04-25 01:44:00,41.5,41.0,30.04,ESE,109,0.0,2.0,98,0.00,,,0.00,weatherlink.com 1.10,2013-04-25 05:44:00,
2013-04-25 01:59:00,41.3,41.0,30.03,ESE,113,2.0,2.0,98,0.00,,,0.00,weatherlink.com 1.10,2013-04-25 05:59:00,
2013-04-25 02:14:00,40.9,40.0,30.03,South,175,0.0,2.0,98,0.00,,,0.00,weatherlink.com 1.10,2013-04-25 06:14:00,
2013-04-25 02:29:00,40.5,40.0,30.02,SSW,193,0.0,3.0,98,0.00,,,0.00,weatherlink.com 1.10,2013-04-25 06:29:00,
2013-04-25 02:44:00,40.1,40.0,30.02,SW,214,1.0,2.0,98,0.00,,,0.00,weatherlink.com 1.10,2013-04-25 06:44:00,
2013-04-25 02:59:00,39.8,39.0,30.03,SW,214,1.0,2.0,98,0.00,,,0.00,weatherlink.com 1.10,2013-04-25 06:59:00,
2013-04-25 03:14:00,39.5,39.0,30.03,SW,214,0.0,1.0,98,0.00,,,0.00,weatherlink.com 1.10,2013-04-25 07:14:00,
2013-04-25 03:29:00,39.4,39.0,30.03,SSW,198,0.0,1.0,98,0.00,,,0.00,weatherlink.com 1.10,2013-04-25 07:29:00,
2013-04-25 03:44:00,38.9,38.0,30.04,SE,132,1.0,2.0,98,0.00,,,0.00,weatherlink.com 1.10,2013-04-25 07:44:00,
2013-04-25 04:00:00,37.8,37.0,30.04,ENE,59,0.0,4.0,98,0.00,,,0.00,weatherlink.com 1.10,2013-04-25 08:00:00,
2013-04-25 04:15:00,37.7,37.0,30.04,ENE,59,0.0,2.0,98,0.00,,,0.00,weatherlink.com 1.10,2013-04-25 08:15:00,
2013-04-25 04:30:00,37.3,37.0,30.04,ENE,63,1.0,2.0,98,0.00,,,0.00,weatherlink.com 1.10,2013-04-25 08:30:00,
2013-04-25 04:45:00,37.0,37.0,30.04,SSW,193,0.0,1.0,98,0.00,,,0.00,weatherlink.com 1.10,2013-04-25 08:45:00,
2013-04-25 05:00:00,36.7,36.0,30.05,SSW,193,0.0,0.0,98,0.00,,,0.00,weatherlink.com 1.10,2013-04-25 09:00:00,
2013-04-25 05:15:00,36.5,36.0,30.05,SSW,193,0.0,0.0,98,0.00,,,0.00,weatherlink.com 1.10,2013-04-25 09:15:00,
2013-04-25 05:30:00,36.4,36.0,30.05,SSW,193,0.0,1.0,98,0.00,,,0.00,weatherlink.com 1.10,2013-04-25 09:30:00,
2013-04-25 05:45:00,36.4,36.0,30.06,SSW,193,1.0,2.0,98,0.00,,,0.00,weatherlink.com 1.10,2013-04-25 09:45:00,
2013-04-25 06:00:00,35.7,35.0,30.06,South,172,0.0,2.0,98,0.00,,,0.00,weatherlink.com 1.10,2013-04-25 10:00:00,
2013-04-25 06:15:00,35.4,35.0,30.07,South,179,0.0,1.0,98,0.00,,,0.00,weatherlink.com 1.10,2013-04-25 10:15:00,
2013-04-25 06:30:00,35.1,34.0,30.07,South,185,1.0,3.0,97,0.00,,,0.00,weatherlink.com 1.10,2013-04-25 10:30:00,
2013-04-25 06:45:00,34.7,34.0,30.08,NNW,330,2.0,4.0,97,0.00,,,0.00,weatherlink.com 1.10,2013-04-25 10:45:00,
2013-04-25 07:00:00,34.6,34.0,30.07,NE,45,0.0,5.0,97,0.00,,,0.00,weatherlink.com 1.10,2013-04-25 11:00:00,
2013-04-25 07:15:00,34.6,34.0,30.08,NE,45,0.0,0.0,97,0.00,,,0.00,weatherlink.com 1.10,2013-04-25 11:15:00,
2013-04-25 07:30:00,34.7,34.0,30.08,NE,45,0.0,0.0,97,0.00,,,0.00,weatherlink.com 1.10,2013-04-25 11:30:00,
2013-04-25 07:45:00,34.8,34.0,30.09,NE,45,0.0,0.0,97,0.00,,,0.00,weatherlink.com 1.10,2013-04-25 11:45:00,
2013-04-25 08:00:00,34.8,34.0,30.08,South,174,0.0,2.0,97,0.00,,,0.00,weatherlink.com 1.10,2013-04-25 12:00:00,
2013-04-25 08:15:00,34.7,34.0,30.09,South,174,0.0,0.0,97,0.00,,,0.00,weatherlink.com 1.10,2013-04-25 12:15:00,
2013-04-25 08:30:00,35.1,35.0,30.09,South,174,0.0,0.0,98,0.00,,,0.00,weatherlink.com 1.10,2013-04-25 12:30:00,
2013-04-25 08:45:00,35.5,35.0,30.10,South,173,0.0,1.0,98,0.00,,,0.00,weatherlink.com 1.10,2013-04-25 12:45:00,
2013-04-25 09:00:00,36.4,36.0,30.10,South,173,0.0,0.0,98,0.00,,,0.00,weatherlink.com 1.10,2013-04-25 13:00:00,
2013-04-25 09:15:00,38.5,38.0,30.10,South,173,0.0,0.0,98,0.00,,,0.00,weatherlink.com 1.10,2013-04-25 13:15:00,
2013-04-25 09:30:00,39.7,38.0,30.10,South,173,1.0,2.0,95,0.00,,,0.00,weatherlink.com 1.10,2013-04-25 13:30:00,
2013-04-25 09:45:00,40.5,39.0,30.11,South,173,0.0,2.0,93,0.00,,,0.00,weatherlink.com 1.10,2013-04-25 13:45:00,
2013-04-25 10:00:00,42.2,39.0,30.11,South,178,1.0,2.0,89,0.00,,,0.00,weatherlink.com 1.10,2013-04-25 14:00:00,
2013-04-25 10:15:00,43.0,39.0,30.12,South,181,2.0,6.0,87,0.00,,,0.00,weatherlink.com 1.10,2013-04-25 14:15:00,
2013-04-25 10:31:00,43.6,39.0,30.12,SSW,202,0.0,5.0,84,0.00,,,0.00,weatherlink.com 1.10,2013-04-25 14:31:00,
2013-04-25 10:46:00,45.2,40.0,30.13,ESE,113,5.0,5.0,81,0.00,,,0.00,weatherlink.com 1.10,2013-04-25 14:46:00,
2013-04-25 11:01:00,45.5,39.0,30.14,SSW,209,3.0,9.0,79,0.00,,,0.00,weatherlink.com 1.10,2013-04-25 15:01:00,
2013-04-25 11:16:00,46.6,39.0,30.14,ESE,112,2.0,8.0,76,0.00,,,0.00,weatherlink.com 1.10,2013-04-25 15:16:00,
2013-04-25 11:31:00,47.1,38.0,30.15,SW,217,5.0,11.0,72,0.00,,,0.00,weatherlink.com 1.10,2013-04-25 15:31:00,
2013-04-25 11:46:00,48.4,37.0,30.16,SW,229,3.0,5.0,66,0.00,,,0.00,weatherlink.com 1.10,2013-04-25 15:46:00,
2013-04-25 12:01:00,48.8,37.0,30.15,WSW,247,4.0,8.0,63,0.00,,,0.00,weatherlink.com 1.10,2013-04-25 16:01:00,
2013-04-25 12:16:00,49.2,35.0,30.16,SSW,201,6.0,10.0,59,0.00,,,0.00,weatherlink.com 1.10,2013-04-25 16:16:00,
2013-04-25 12:31:00,50.4,35.0,30.16,WSW,238,4.0,10.0,57,0.00,,,0.00,weatherlink.com 1.10,2013-04-25 16:31:00,
2013-04-25 12:46:00,51.0,35.0,30.16,SSW,211,5.0,8.0,54,0.00,,,0.00,weatherlink.com 1.10,2013-04-25 16:46:00,
2013-04-25 13:01:00,52.3,33.0,30.16,SW,230,4.0,8.0,48,0.00,,,0.00,weatherlink.com 1.10,2013-04-25 17:01:00,
2013-04-25 13:16:00,52.9,32.0,30.16,SSW,205,6.0,7.0,46,0.00,,,0.00,weatherlink.com 1.10,2013-04-25 17:16:00,
2013-04-25 13:31:00,53.9,32.0,30.15,WSW,244,4.0,8.0,43,0.00,,,0.00,weatherlink.com 1.10,2013-04-25 17:31:00,
2013-04-25 13:46:00,54.7,33.0,30.15,SSW,210,3.0,8.0,44,0.00,,,0.00,weatherlink.com 1.10,2013-04-25 17:46:00,
2013-04-25 14:01:00,55.3,29.0,30.15,WNW,284,2.0,8.0,36,0.00,,,0.00,weatherlink.com 1.10,2013-04-25 18:01:00,
2013-04-25 14:16:00,55.7,30.0,30.15,SSW,211,2.0,9.0,37,0.00,,,0.00,weatherlink.com 1.10,2013-04-25 18:16:00,
2013-04-25 14:31:00,56.8,30.0,30.15,WSW,249,5.0,8.0,36,0.00,,,0.00,weatherlink.com 1.10,2013-04-25 18:31:00,
2013-04-25 14:46:00,56.7,30.0,30.15,SSW,205,3.0,7.0,36,0.00,,,0.00,weatherlink.com 1.10,2013-04-25 18:46:00,
2013-04-25 15:01:00,57.6,30.0,30.14,West,269,7.0,8.0,35,0.00,,,0.00,weatherlink.com 1.10,2013-04-25 19:01:00,
2013-04-25 15:16:00,57.6,29.0,30.15,WSW,252,3.0,8.0,34,0.00,,,0.00,weatherlink.com 1.10,2013-04-25 19:16:00,
2013-04-25 15:31:00,58.1,31.0,30.14,South,181,2.0,8.0,36,0.00,,,0.00,weatherlink.com 1.10,2013-04-25 19:31:00,
2013-04-25 15:46:00,58.8,32.0,30.14,NNE,15,1.0,6.0,36,0.00,,,0.00,weatherlink.com 1.10,2013-04-25 19:46:00,
2013-04-25 16:01:00,57.4,28.0,30.14,SW,229,3.0,10.0,33,0.00,,,0.00,weatherlink.com 1.10,2013-04-25 20:01:00,
2013-04-25 16:17:00,57.9,29.0,30.14,WSW,257,1.0,6.0,33,0.00,,,0.00,weatherlink.com 1.10,2013-04-25 20:17:00,
2013-04-25 16:32:00,57.6,28.0,30.13,South,191,2.0,8.0,32,0.00,,,0.00,weatherlink.com 1.10,2013-04-25 20:32:00,
2013-04-25 16:47:00,57.6,28.0,30.13,SW,216,4.0,11.0,32,0.00,,,0.00,weatherlink.com 1.10,2013-04-25 20:47:00,
2013-04-25 17:02:00,58.3,20.0,30.12,WSW,240,1.0,6.0,23,0.00,,,0.00,weatherlink.com 1.10,2013-04-25 21:02:00,
2013-04-25 17:17:00,59.6,25.0,30.13,South,180,2.0,5.0,27,0.00,,,0.00,weatherlink.com 1.10,2013-04-25 21:17:00,
2013-04-25 17:32:00,58.7,28.0,30.13,SW,221,0.0,5.0,31,0.00,,,0.00,weatherlink.com 1.10,2013-04-25 21:32:00,
2013-04-25 17:47:00,58.5,22.0,30.14,ENE,73,3.0,6.0,24,0.00,,,0.00,weatherlink.com 1.10,2013-04-25 21:47:00,
2013-04-25 18:02:00,57.7,27.0,30.14,North,4,1.0,6.0,31,0.00,,,0.00,weatherlink.com 1.10,2013-04-25 22:02:00,
2013-04-25 18:17:00,56.8,27.0,30.15,WSW,250,5.0,7.0,32,0.00,,,0.00,weatherlink.com 1.10,2013-04-25 22:17:00,
2013-04-25 18:32:00,55.5,24.0,30.15,SW,219,3.0,7.0,29,0.00,,,0.00,weatherlink.com 1.10,2013-04-25 22:32:00,
2013-04-25 18:47:00,54.9,20.0,30.16,SSW,200,4.0,6.0,25,0.00,,,0.00,weatherlink.com 1.10,2013-04-25 22:47:00,
2013-04-25 19:02:00,54.6,13.0,30.16,SW,227,4.0,10.0,19,0.00,,,0.00,weatherlink.com 1.10,2013-04-25 23:02:00,
2013-04-25 19:17:00,53.2,25.0,30.16,SW,226,2.0,2.0,34,0.00,,,0.00,weatherlink.com 1.10,2013-04-25 23:17:00,
2013-04-25 19:32:00,51.7,27.0,30.16,SW,224,2.0,5.0,39,0.00,,,0.00,weatherlink.com 1.10,2013-04-25 23:32:00,
2013-04-25 19:47:00,51.0,28.0,30.17,SW,224,0.0,0.0,41,0.00,,,0.00,weatherlink.com 1.10,2013-04-25 23:47:00,
2013-04-25 20:02:00,50.1,28.0,30.17,NNW,337,2.0,3.0,42,0.00,,,0.00,weatherlink.com 1.10,2013-04-26 00:02:00,
2013-04-25 20:17:00,49.4,27.0,30.17,SW,221,0.0,3.0,42,0.00,,,0.00,weatherlink.com 1.10,2013-04-26 00:17:00,
2013-04-25 20:32:00,48.9,27.0,30.18,NE,37,0.0,5.0,43,0.00,,,0.00,weatherlink.com 1.10,2013-04-26 00:32:00,
2013-04-25 20:47:00,47.8,26.0,30.18,South,188,2.0,3.0,43,0.00,,,0.00,weatherlink.com 1.10,2013-04-26 00:47:00,
2013-04-25 21:02:00,46.9,27.0,30.18,SSW,201,0.0,2.0,47,0.00,,,0.00,weatherlink.com 1.10,2013-04-26 01:02:00,
2013-04-25 21:17:00,46.0,29.0,30.19,North,360,1.0,3.0,52,0.00,,,0.00,weatherlink.com 1.10,2013-04-26 01:17:00,
2013-04-25 21:32:00,45.2,29.0,30.19,NE,56,0.0,3.0,54,0.00,,,0.00,weatherlink.com 1.10,2013-04-26 01:32:00,
2013-04-25 21:47:00,45.1,29.0,30.20,NE,34,0.0,3.0,54,0.00,,,0.00,weatherlink.com 1.10,2013-04-26 01:47:00,
2013-04-25 22:02:00,44.5,29.0,30.21,ENE,67,0.0,3.0,54,0.00,,,0.00,weatherlink.com 1.10,2013-04-26 02:02:00,
2013-04-25 22:17:00,44.4,28.0,30.21,ENE,78,0.0,3.0,53,0.00,,,0.00,weatherlink.com 1.10,2013-04-26 02:17:00,
2013-04-25 22:32:00,43.9,28.0,30.22,ENE,78,1.0,3.0,55,0.00,,,0.00,weatherlink.com 1.10,2013-04-26 02:32:00,
2013-04-25 22:47:00,43.7,27.0,30.22,NNE,30,2.0,3.0,52,0.00,,,0.00,weatherlink.com 1.10,2013-04-26 02:47:00,
2013-04-25 23:02:00,43.8,27.0,30.23,NNE,30,1.0,3.0,53,0.00,,,0.00,weatherlink.com 1.10,2013-04-26 03:02:00,
2013-04-25 23:17:00,43.4,29.0,30.23,NNE,31,3.0,4.0,58,0.00,,,0.00,weatherlink.com 1.10,2013-04-26 03:17:00,
2013-04-25 23:32:00,43.6,28.0,30.23,NNE,31,2.0,3.0,54,0.00,,,0.00,weatherlink.com 1.10,2013-04-26 03:32:00,
2013-04-25 23:47:00,43.3,28.0,30.23,NNE,31,2.0,4.0,55,0.00,,,0.00,weatherlink.com 1.10,2013-04-26 03:47:00,